Location: Mladá Boleslav
(50.4134°N, 14.9084°E)
Time: 03:57:25
(UTC+01:00)

Tiangong - Visible Passes

Search period start: 28 February 2024 00:00
Search period end: 09 March 2024 00:00
Orbit: 375 x 385 km, 41.5° (Epoch: 27 February)

Date Brightness Start Highest point End Pass type
(mag) Time Alt. Az. Time Alt. Az. Time Alt. Az.
01 Mar 0.4 18:51:35 10° S 18:52:09 10° SSE 18:52:44 10° SSE visible
02 Mar 0.1 19:25:08 10° SSW 19:26:51 15° S 19:26:51 15° S visible
03 Mar 0.3 18:24:24 10° SSW 18:25:54 13° SSE 18:27:24 10° SE visible
03 Mar 0.5 19:59:54 10° SW 20:00:34 13° SSW 20:00:34 13° SSW visible
04 Mar 0.0 18:58:38 10° SW 19:00:40 16° S 19:02:05 13° SSE visible
05 Mar 0.1 19:33:33 10° SW 19:35:23 15° S 19:35:38 15° S visible
06 Mar 0.2 18:32:01 10° SW 18:34:02 16° S 18:36:02 10° SE visible
07 Mar 0.4 19:07:08 10° SW 19:08:34 13° SSW 19:10:01 10° SSE visible
